Resoconti di bolidi

Nov 06, 2019 - Dec 07, 2019
Trovati resoconti: 2753  negli ultimi 30 giorni  Pagina 5 / 56
IDDate e tempo T.U. (Tempo Universale)Data e tempo localeRegioneCittàStatoDur.MagnitudineSuono differitoSuono contemporaneoFrag.OsservatoreLivello di esperienza
Evento 6165-2019
6165al2019-12-04 23:47 UT2019-12-04 17:47 CSTUS MattoonIL≈3,5s -6???Amanda H 1
6165am2019-12-04 23:47 UT2019-12-04 17:47 CSTUS DecaturIL≈3,5s -12--?SaraD 1
6165an2019-12-04 23:47 UT2019-12-04 17:47 CSTUS DecaturIL≈3,5s -19??-Melissa C 1
6165ao2019-12-04 23:50 UT2019-12-04 17:50 CSTUS BondvilleIL≈1,5s -12??JamesS 1
6165ap2019-12-04 23:50 UT2019-12-04 17:50 CSTUS LovingtonIL≈1,5s -22--?JansenB 1
6165aq2019-12-04 23:50 UT2019-12-04 17:50 CSTUS MaroaIL≈1,5s -9---MattM 1
6165ar2019-12-04 23:50 UT2019-12-04 17:50 CSTUS PanaIL≈3,5s -7--?Frankie D 1
6165as2019-12-04 23:50 UT2019-12-04 17:50 CSTUS OreanaIL≈3,5s -22---KamekaS 1
6165at2019-12-04 23:50 UT2019-12-04 17:50 CSTUS TuscolaIL≈3,5s -9---AlishaS 2
6165au2019-12-04 23:52 UT2019-12-04 17:52 CSTUS AuburnIL≈3,5s -16--?EmilyH 1
6165av2019-12-04 23:52 UT2019-12-04 17:52 CSTUS MattoonIL≈3,5s -12???KristinD 1
6165aw2019-12-04 23:50 UT2019-12-04 17:50 CSTUS DecaturIL≈1,5s -15---HarryB 1
6165ax2019-12-05 00:10 UT2019-12-04 18:10 CSTUS SullivanIL≈7,5s -13---JavkieC 2
6165ay2019-12-05 00:13 UT2019-12-04 18:13 CSTUS DecaturIL≈3,5s -13???LaReeJ 2
6165az2019-12-05 00:15 UT2019-12-04 18:15 CSTUS BloomingtonIllinois≈1,5s -14---TylerR 2
6165ba2019-12-05 00:15 UT2019-12-04 18:15 CSTUS PlainfieldIllinois≈3,5s -6??KevinM 1
6165bb2019-12-05 00:17 UT2019-12-04 18:17 CSTUS DecaturIL≈1,5s -24---SharonW 1
6165bc2019-12-05 00:35 UT2019-12-04 18:35 CSTUS TolonoIL≈1,5s -24---SamanthaR 1
6165e2019-12-04 23:47 UT2019-12-04 18:47 ESTUS GreendaleIN≈1,5s -20---BrianR 3
6165f2019-12-04 23:50 UT2019-12-04 18:50 ESTUS FishersIN≈3,5s -11---CoreyM 2
6165g2019-12-04 23:46 UT2019-12-04 17:46 CSTUS LindenhurstIL≈3,5s -8---AmandaC 3
6165h2019-12-04 23:49 UT2019-12-04 17:49 CSTUS WoodridgeIL≈3,5s -13---MelissaR 1
6165i2019-12-05 00:00 UT2019-12-04 18:00 CSTUS PeotoneIL≈3,5s -8---PattyJ 3
6165j2019-12-04 23:45 UT2019-12-04 17:45 CSTUS PaducahKY≈3,5s -13---Jennifer F 3
6165k2019-12-04 23:45 UT2019-12-04 17:45 CSTUS MetropolisIL≈3,5s 0-?GarryS 1
6165l2019-12-04 23:46 UT2019-12-04 17:46 CSTUS LaSalleIL≈1,5s -17??-MichaelA 1
6165m2019-12-04 23:50 UT2019-12-04 17:50 CSTUS NormalIL≈1,5s -12---CassieM 1
6165n2019-12-04 23:48 UT2019-12-04 17:48 CSTUS DubuqueIA≈3,5s -8--?TylerP 1
6165o2019-12-04 23:44 UT2019-12-04 17:44 CSTUS AtlantaIL≈3,5s -16???ChrisJ 2
6165p2019-12-04 23:53 UT2019-12-04 17:53 CSTUS JacksonMO≈1,5s -9--JamesB 1
6165q2019-12-04 23:45 UT2019-12-04 17:45 CSTUS DeWittIA≈3,5s -4---TamaraS 2
6165r2019-12-04 23:20 UT2019-12-04 17:20 CSTUS BettendorfIA<1s -7--?JoeC 2
6165s2019-12-04 23:48 UT2019-12-04 17:48 CSTUS SteelevilleIL≈3,5s -8--KeithM 2
6165t2019-12-04 23:50 UT2019-12-04 17:50 CSTUS SpringfieldIL≈1,5s -6--JimmyH 3
6165u2019-12-04 23:50 UT2019-12-04 17:50 CSTUS GalesburgIL≈3,5s -8---GaryB 3
6165v2019-12-04 23:45 UT2019-12-04 17:45 CSTUS HerculaneumMO≈3,5s -11---SallyB 2
6165w2019-12-04 23:47 UT2019-12-04 17:47 CSTUS KirkwoodMO≈3,5s -17---ROBW 4
6165x2019-12-04 23:45 UT2019-12-04 17:45 CSTUS MarengoIA≈1,5s -7??Mitch F 3
6165y2019-12-04 23:47 UT2019-12-04 17:47 CSTUS ChesterfieldMO≈3,5s -7--Ann MarieF 4
6165z2019-12-04 23:49 UT2019-12-04 17:49 CSTUS MexicoMO≈3,5s -14---KatyS 1
Evento 6164-2019
6164a2019-12-05 01:35 UT2019-12-04 19:35 CSTUS ClantonAL≈1,5s -15???SusieS 1
6164aa2019-12-05 01:23 UT2019-12-04 20:23 ESTUS PerryGA≈20s -11---LouAnn M 1
6164ab2019-12-05 01:26 UT2019-12-04 19:26 CSTUS PontotocMS≈7,5s -13--McNeilS 1
6164ac2019-12-05 01:27 UT2019-12-04 20:27 ESTUS SuwaneeGA≈3,5s -13--ChristinaJ 1
6164ad2019-12-05 01:30 UT2019-12-04 20:30 ESTUS MaconGA≈3,5s 0---AngelaP 1
6164ae2019-12-05 01:40 UT2019-12-04 20:40 ESTUS GA≈7,5s -10---NadiaP 1
6164af2019-12-05 01:29 UT2019-12-04 20:29 ESTUS AlpharettaGA≈1,5s -15??JenniferG 1
6164ag2019-12-05 01:25 UT2019-12-04 20:25 ESTUS ForsythGA≈1,5s -13---JoyceK 2
6164ah2019-12-05 01:40 UT2019-12-04 20:40 ESTUS TrentonGA≈7,5s -10---MelissaM 4
6164ai2019-12-05 01:25 UT2019-12-04 20:25 ESTUS JacksonGA≈7,5s -17---DeborahF 2